Overview Statistics Trail Chart Weather Telemetry Raw packets
 

This is the latest recevied weather packets stored in our database for station/object KA1JKB. If no packets are shown the sender has not sent any weather packets the latest 10 day(s).

<< 80 81 82 83 84 85 86 >>
Time Temp. Humidity Pressure Rain* Wind** Luminosity Snow
1787853027 25.56° C 68% 1012.9 hPa 0 mm - 729 W/m² -
1787852727 26.11° C 73% 1012.9 hPa 0 mm - 721 W/m² -
1787852426 25° C 72% 1012.8 hPa 0 mm - 763 W/m² -
1787852126 25.56° C 69% 1012.9 hPa 0 mm - 221 W/m² -
1787851821 25.56° C 71% 1012.9 hPa 0 mm - 851 W/m² -
1787851515 25° C 73% 1013.1 hPa 0 mm - 773 W/m² -
1787851215 25° C 71% 1013.1 hPa 0 mm - 181 W/m² -
1787850910 23.89° C 74% 1013.1 hPa 0 mm - 758 W/m² -
1787850607 24.44° C 74% 1013.3 hPa 0 mm - 243 W/m² -
1787850301 25° C 73% 1013 hPa 0 mm - 275 W/m² -
1787849996 25.56° C 73% 1012.9 hPa 0 mm - 692 W/m² -
1787849696 25.56° C 72% 1013 hPa 0 mm - 316 W/m² -
1787849392 25° C 75% 1013.1 hPa 0 mm - 808 W/m² -
1787849090 25.56° C 74% 1012.9 hPa 0 mm - 245 W/m² -
1787848785 24.44° C 74% 1012.9 hPa 0 mm - 859 W/m² -
1787848484 23.89° C 77% 1012.9 hPa 0 mm - 792 W/m² -
1787848179 24.44° C 74% 1013.1 hPa 0 mm - 225 W/m² -
1787847879 24.44° C 77% 1012.9 hPa 0 mm - 784 W/m² -
1787847574 23.89° C 78% 1012.9 hPa 0 mm - 886 W/m² -
1787847269 24.44° C 76% 1013 hPa 0 mm - 200 W/m² -
1787846967 23.89° C 78% 1012.9 hPa 0 mm - 344 W/m² -
1787846673 23.89° C 78% 1012.9 hPa 0 mm - 808 W/m² -
1787846360 23.89° C 76% 1012.9 hPa 0 mm - 429 W/m² -
1787846057 23.89° C 76% 1012.7 hPa 0 mm - 209 W/m² -
1787845752 24.44° C 75% 1012.8 hPa 0 mm - 897 W/m² -

* Rain latest hour (hover to see other rain measurements)
** Current wind speed in m/s (hover to see current wind gust speed)